Location: Izdebno
(52.6670°N, 16.2170°E)
Time: 04:59:03
(UTC+01:00)

BlueWalker 3 - Pass Details

Date: 01 December 2023
Orbit: 485 x 499 km, 53.2° (Epoch: 01 March)

Event Time Altitude Azimuth Distance (km) Brightness Sun altitude
Exits shadow 05:34:23 38° 232° (SW) 772 2.5 -18.6°
Maximum altitude 05:34:55 41° 210° (SSW) 738 2.6 -18.5°
Drops below altitude 10° 05:38:30 10° 139° (SE) 1,688 5.4 -17.9°
Enters shadow 06:33:30 -71° 323° (NW) 12,569 8.9 -10.0°
